Dewpoint
59 59 58 58 57 58 58 58 58 58 59 59 59 59 59 58 56 48 44 46 49 59 55 37 33 33 32 30 29 28 23 20 18 18 20 21 22 24 24 24 25 27 27 31 46
59 58 58 58 57 57 57 58 58 59 59 59 58 58 58 57 51 46 53 57 59 59 43 37 35 36 32 30 29 26 23 20 21 23 23 24 25 26 26 26 26 27 28 28 35
59 58 58 58 57 57 57 58 58 59 59 59 58 58 57 55 47 41 61 60 60 56 42 40 39 35 33 31 30 29 27 27 26 27 27 26 26 27 27 29 31 31 33 31 31
58 58 58 58 58 58 57 58 59 59 59 58 58 58 56 51 38 45 61 58 59 49 42 38 36 35 34 33 32 30 29 29 29 28 28 27 31 32 33 34 34 34 35 35 35
57 57 57 58 58 58 58 58 59 59 58 58 57 56 52 47 44 50 58 55 46 43 41 38 36 37 35 34 33 32 31 31 31 33 34 35 34 34 33 33 32 32 33 35 36
56 56 56 57 58 58 58 58 58 57 56 56 55 55 50 45 45 47 46 45 44 43 42 41 40 39 37 36 35 34 34 35 36 34 34 33 32 31 31 30 31 31 31 34 34
56 56 56 57 58 58 58 57 57 56 55 54 54 49 48 45 45 47 46 44 43 44 41 43 43 40 37 36 37 36 36 33 32 30 30 31 28 26 23 27 27 28 30 32 33
56 56 56 56 57 57 57 56 55 55 55 54 54 49 46 46 46 45 45 45 44 44 42 42 41 42 39 39 36 34 33 30 29 30 29 28 24 22 25 27 27 29 27 28 30
56 55 55 56 56 56 56 55 54 55 53 55 50 49 45 47 42 43 43 41 40 41 42 39 41 37 34 34 31 30 27 28 26 26 22 25 24 24 26 26 25 27 29 30 31
56 56 55 55 56 55 54 53 54 52 51 48 45 46 45 39 37 41 42 40 44 44 42 40 37 32 32 30 26 26 25 24 17 15 19 19 21 23 24 25 26 28 29 29 30
56 56 55 55 55 53 51 48 45 43 44 44 44 44 36 39 39 42 46 45 46 43 38 41 36 33 31 32 29 26 23 18 15 18 23 25 26 24 24 24 25 25 28 30 30
56 56 55 55 55 52 51 48 46 43 43 44 45 43 36 36 35 35 43 41 43 39 36 38 35 30 28 28 27 27 24 21 22 24 26 25 23 23 24 25 26 26 27 31 38
56 56 55 55 53 52 51 49 46 46 40 40 44 44 40 36 33 34 39 38 34 33 30 31 33 32 29 26 29 28 24 26 25 26 27 26 23 22 23 23 23 26 38 38 38
56 55 55 54 51 54 52 51 49 47 41 40 36 38 41 39 36 35 38 33 31 29 31 29 29 30 29 28 29 30 28 26 26 23 22 24 20 21 20 20 28 34 35 34 34
55 55 54 53 54 51 51 52 47 51 29 41 38 37 36 36 35 34 33 34 30 25 24 26 25 27 28 27 28 28 27 26 27 24 27 24 21 20 18 18 27 31 31 30 29
55 55 54 53 53 53 51 48 48 36 29 41 34 32 32 33 33 29 29 28 27 26 23 22 23 24 26 25 25 24 27 30 29 27 25 23 21 19 17 22 27 30 27 24 25
53 55 53 54 50 54 49 45 33 29 41 38 30 32 33 31 29 33 29 26 24 22 23 20 20 25 25 24 29 29 28 26 24 24 22 20 18 20 19 27 29 26 23 23 24
53 54 54 54 54 50 48 41 30 36 37 37 30 31 30 27 25 32 30 26 26 23 24 22 21 21 27 24 27 30 28 24 19 19 18 18 17 16 18 26 26 26 25 22 24
53 53 53 54 51 50 44 32 33 36 37 34 28 30 30 26 27 31 31 28 27 29 27 26 25 27 30 27 28 27 26 26 26 25 24 20 20 19 19 23 27 26 26 21 21
51 50 50 54 51 48 40 34 39 40 39 34 29 30 29 25 25 30 30 30 31 32 35 31 32 28 28 28 28 27 26 27 29 27 22 18 18 18 23 24 23 22 19 14 13
49 44 49 51 50 43 34 35 34 39 40 33 31 29 29 25 25 28 30 29 33 33 34 33 34 31 27 25 23 25 23 23 23 28 26 21 24 25 25 23 20 17 12 13 13
47 34 47 49 37 36 35 36 36 38 39 37 38 35 29 27 26 26 27 31 32 30 27 29 28 31 26 20 20 21 23 28 33 30 32 30 28 27 22 19 18 15 12 11 12
40 35 48 45 33 32 32 32 34 35 35 36 36 37 33 31 33 34 34 34 30 27 29 27 29 24 21 23 23 22 23 28 35 33 30 26 26 16 16 18 17 14 10 9 16
35 30 33 39 36 36 33 33 32 36 35 36 36 38 36 35 34 35 34 35 32 29 33 30 27 26 24 21 27 26 26 27 33 28 25 25 23 18 16 13 11 9 12 17 20
35 33 36 31 33 36 35 35 32 32 35 36 35 34 33 32 33 33 33 35 32 34 29 27 24 25 20 16 14 14 15 16 21 24 24 20 15 15 13 9 8 12 17 18 20
33 34 38 36 37 36 35 33 32 34 34 33 34 36 35 34 31 32 35 31 30 31 28 30 26 22 29 18 16 15 13 13 13 13 15 12 11 9 8 10 15 18 17 17 18
42 42 40 35 36 34 34 35 35 34 35 35 35 34 34 33 35 34 33 31 28 28 27 31 28 25 14 11 12 16 16 15 14 12 11 10 8 6 9 13 18 17 17 19 26
Lifted_Index
8 8 9 9 9 9 10 10 9 9 9 9 9 9 8 8 7 6 6 6 7 8 8 8 7 7 7 7 7 6 6 5 4 4 4 5 5 5 6 6 6 6 6 5 4
8 8 9 9 9 10 10 10 9 9 8 8 9 8 8 8 7 6 6 6 7 7 7 7 7 7 6 6 6 6 6 5 4 4 5 5 5 5 5 5 5 5 6 5 5
8 8 8 9 9 9 9 9 9 8 8 8 8 8 8 7 6 6 6 7 7 7 6 6 6 6 5 5 5 5 5 5 5 5 5 6 6 5 5 4 4 5 5 5 5
8 8 8 9 9 9 9 9 8 8 8 8 8 8 7 6 5 5 6 7 7 6 6 6 6 5 5 4 4 5 5 5 5 5 5 6 5 5 4 4 4 4 4 5 5
8 8 8 8 8 8 8 8 8 7 8 8 7 7 6 5 5 5 6 6 6 6 5 5 5 4 4 4 4 4 4 5 5 5 5 5 5 5 4 4 4 4 4 4 4
8 8 8 8 8 8 8 7 7 7 7 7 7 7 6 5 5 5 5 6 6 5 5 5 4 4 4 4 4 4 4 4 4 4 5 5 5 5 5 4 4 4 4 4 4
7 7 8 8 7 7 7 7 7 7 7 7 7 6 6 5 5 5 5 5 5 5 5 5 5 5 4 4 4 4 4 4 4 4 4 5 5 5 5 5 4 4 5 5 5
6 7 8 7 7 7 7 7 7 7 6 6 6 6 6 5 4 4 5 5 5 6 6 6 6 6 5 5 5 5 4 4 4 4 5 5 5 5 5 5 5 5 5 5 5
4 5 7 7 7 7 6 7 7 6 6 6 6 5 5 4 4 4 4 5 5 6 6 7 6 6 5 5 4 4 4 4 4 5 5 6 5 5 6 6 5 5 5 5 5
2 4 6 7 7 6 6 6 6 6 7 6 6 5 4 4 4 4 4 4 5 5 5 6 5 5 5 4 4 4 4 4 5 5 6 6 6 6 6 6 6 5 5 5 5
1 3 5 6 6 5 5 6 6 6 6 6 5 4 4 4 5 4 4 4 3 4 4 4 4 4 4 4 4 4 5 5 6 6 6 6 6 6 5 5 5 5 5 5 5
2 2 4 5 5 5 5 6 6 6 5 5 4 3 4 4 4 4 4 3 3 3 3 3 3 3 4 4 5 5 5 5 6 6 6 6 5 5 5 5 5 5 5 5 5
4 3 3 4 5 5 6 6 5 5 5 4 4 3 4 4 3 4 4 4 4 3 3 3 3 4 4 4 4 5 5 5 5 5 5 4 4 4 4 5 5 6 6 6 6
5 4 4 4 5 6 6 5 5 5 4 4 4 5 4 4 3 4 4 4 4 4 4 4 4 4 4 4 4 4 4 5 5 5 4 4 3 3 3 4 5 6 7 7 7
6 5 4 5 6 7 7 6 5 4 3 4 5 6 5 4 4 4 5 5 4 4 4 4 4 4 4 4 4 4 4 5 5 4 4 3 3 2 2 3 5 7 8 9 9
7 6 5 5 6 7 7 6 5 4 3 4 5 6 5 4 4 5 5 5 5 4 4 5 5 5 5 5 5 5 5 4 4 3 3 3 3 2 2 4 6 8 9 10 10
7 6 5 5 6 7 7 6 5 4 4 4 5 5 4 3 4 5 5 4 4 3 4 4 5 6 6 6 5 5 4 3 2 2 2 2 3 3 3 4 7 9 10 11 11
7 7 5 5 6 7 7 6 5 4 4 4 4 4 4 3 4 4 4 3 4 4 3 3 4 6 7 6 5 4 4 3 2 1 2 2 3 4 4 4 7 9 10 10 11
7 7 6 6 7 7 6 4 4 4 4 4 4 4 3 3 4 4 4 4 4 5 4 3 4 6 7 6 5 4 4 4 3 2 2 3 4 4 4 4 6 8 9 10 10
7 7 6 6 6 6 5 4 4 4 4 3 3 3 3 4 4 4 4 4 5 5 5 4 4 5 6 6 6 5 5 5 4 3 2 3 4 4 4 4 6 7 9 10 10
7 7 6 6 6 6 5 4 5 5 4 3 3 3 4 4 4 4 4 5 6 7 6 5 5 5 6 7 7 6 6 6 5 3 2 2 4 5 6 6 7 8 9 10 10
6 6 7 7 6 6 5 5 5 5 5 4 4 4 5 5 5 5 5 7 8 8 7 7 6 5 6 7 8 7 7 6 5 4 4 3 4 6 7 8 8 8 9 9 10
5 6 8 8 7 6 6 6 6 6 5 5 4 4 5 5 6 6 7 8 9 9 9 8 7 5 5 7 7 7 6 6 5 5 5 4 5 7 8 8 9 9 8 8 7
5 6 8 9 8 7 6 6 6 6 6 5 5 5 5 5 6 7 7 9 10 10 9 8 7 5 5 6 7 7 6 6 6 6 6 6 7 8 9 9 8 8 7 6 5
6 7 8 9 8 8 7 6 6 6 7 6 6 5 5 5 5 6 7 8 9 9 9 8 7 6 6 6 7 7 7 7 7 7 6 7 7 8 8 8 7 5 4 4 4
7 7 8 8 9 9 8 7 6 7 7 7 7 6 6 6 5 6 6 7 7 8 8 7 6 6 6 7 7 7 6 6 6 6 6 7 7 6 6 6 5 4 4 4 4
7 8 8 9 9 9 8 7 7 8 8 8 7 7 7 7 6 6 7 7 7 7 7 7 7 6 6 7 7 6 6 6 6 6 6 7 6 5 4 4 3 4 4 4 3